CW3847 La Orotava ES current weather conditions

sailwx.info

Wind from 319 at 1 knots gusting 4

Air temperature 22.2° C
Dewpoint 18.0° C

Last reported at 2017-Aug-16 09:25 UTC.
Time now 2017-Aug-17 05:54 UTC

Location: N 28°23' W 016°31'.
View on Google Maps.

See reports from other nearby stations

  
Tides and Currents Weather Stations Pressure Air Temp Water Temp Dewpoint Dewpoint Depression Visibility Wind Speed Wind Dir Waves Ship Positions
date/time (UTC)wind fromknots sea level pressurealtimeterstation pressurevisibilityair tempwater tempwave heightnotes
2017-Aug-16 09:25 319 1 gusting 4 22.2
2017-Aug-16 09:20 305 0 gusting 2 22.2
2017-Aug-16 09:15 305 0 gusting 3 22.2
2017-Aug-16 09:05 275 1 gusting 6 21.7
2017-Aug-16 09:00 214 1 gusting 6 21.7
2017-Aug-16 08:55 185 21.7
2017-Aug-16 08:50 184 21.7
2017-Aug-16 08:45 184 21.7
2017-Aug-16 08:40 185 0 gusting 2 21.1
2017-Aug-16 08:35 184 0 gusting 2 21.1
2017-Aug-16 08:30 185 0 gusting 2 21.1
2017-Aug-16 08:25 185 0 gusting 2 21.1
2017-Aug-16 08:20 185 0 gusting 2 21.1
2017-Aug-16 08:15 183 0 gusting 2 20.6
2017-Aug-16 08:10 179 0 gusting 2 20.6
2017-Aug-16 08:05 177 0 gusting 2 20.6
2017-Aug-16 08:00 177 0 gusting 2 20.0
2017-Aug-16 07:55 177 0 gusting 2 19.4
2017-Aug-16 07:50 177 1 gusting 3 18.9
2017-Aug-16 07:45 177 1 gusting 3 18.3
2017-Aug-16 07:40 177 1 gusting 2 18.3
2017-Aug-16 07:35 176 1 gusting 2 18.3
2017-Aug-16 07:30 176 1 gusting 2 17.8
2017-Aug-16 07:25 176 1 gusting 3 17.8
2017-Aug-16 07:20 176 1 gusting 4 17.8
2017-Aug-16 07:15 176 2 gusting 4 17.8
2017-Aug-16 07:10 176 1 gusting 4 17.8
2017-Aug-16 07:05 175 2 gusting 5 17.8
2017-Aug-16 07:00 174 2 gusting 5 17.8
2017-Aug-16 06:55 175 2 gusting 5 17.8
2017-Aug-16 06:50 176 2 gusting 4 17.8
2017-Aug-16 06:45 177 2 gusting 4 17.8
2017-Aug-16 06:40 177 2 gusting 5 17.8
2017-Aug-16 06:35 174 2 gusting 6 17.8
2017-Aug-16 06:30 173 2 gusting 6 17.8
2017-Aug-16 06:25 173 2 gusting 5 17.8
2017-Aug-16 06:20 174 2 gusting 5 18.3
2017-Aug-16 06:15 175 1 gusting 5 18.3
2017-Aug-16 06:10 174 1 gusting 5 18.3
2017-Aug-16 06:05 172 1 gusting 5 18.3
2017-Aug-16 06:00 172 1 gusting 5 18.3
2017-Aug-16 05:55 172 1 gusting 4 18.3
2017-Aug-16 05:50 172 1 gusting 4 18.9
2017-Aug-16 05:45 172 1 gusting 4 18.9
2017-Aug-16 05:40 172 1 gusting 4 18.9
2017-Aug-16 05:35 172 1 gusting 4 18.9
2017-Aug-16 05:30 172 0 gusting 4 18.9
2017-Aug-16 05:25 172 0 gusting 2 18.9
2017-Aug-16 05:20 172 1 gusting 5 18.9
2017-Aug-16 05:15 172 1 gusting 5 18.9
2017-Aug-16 05:10 172 0 gusting 4 18.9
2017-Aug-16 05:05 172 0 gusting 4 18.9
2017-Aug-16 05:00 172 1 gusting 5 18.9
2017-Aug-16 04:55 172 1 gusting 5 18.9
2017-Aug-16 04:50 172 1 gusting 4 18.9
2017-Aug-16 04:45 172 1 gusting 4 18.9
2017-Aug-16 04:40 173 1 gusting 4 18.9
2017-Aug-16 04:35 173 1 gusting 4 18.9
2017-Aug-16 04:30 172 1 gusting 4 18.9
2017-Aug-16 04:25 172 1 gusting 4 18.9
2017-Aug-16 04:20 172 1 gusting 4 18.9
2017-Aug-16 04:15 172 1 gusting 4 18.9
2017-Aug-16 04:10 172 1 gusting 4 18.9
2017-Aug-16 04:05 172 1 gusting 4 18.9
2017-Aug-16 04:00 172 1 gusting 4 18.9
2017-Aug-16 03:55 172 0 gusting 4 18.9
2017-Aug-16 03:50 172 0 gusting 2 18.9
2017-Aug-16 03:45 172 0 gusting 2 18.9
2017-Aug-16 03:40 172 1 gusting 4 18.9
2017-Aug-16 03:35 172 1 gusting 4 18.9
2017-Aug-16 03:30 172 0 gusting 4 18.9
2017-Aug-16 03:25 173 1 gusting 4 18.9
2017-Aug-16 03:20 172 1 gusting 4 18.9
2017-Aug-16 03:15 173 1 gusting 4 18.9
2017-Aug-16 03:10 173 2 gusting 5 18.9
2017-Aug-16 03:05 175 2 gusting 5 18.9
2017-Aug-16 03:00 178 1 gusting 4 18.9
2017-Aug-16 02:55 179 1 gusting 4 19.4
2017-Aug-16 02:50 181 2 gusting 4 19.4
2017-Aug-16 02:45 182 2 gusting 4 19.4
2017-Aug-16 02:40 182 1 gusting 4 19.4
2017-Aug-16 02:35 183 1 gusting 3 19.4
2017-Aug-16 02:30 187 2 gusting 4 19.4
2017-Aug-16 02:25 193 1 gusting 4 19.4
2017-Aug-16 02:20 198 0 gusting 3 19.4
2017-Aug-16 02:15 198 0 gusting 2 19.4
2017-Aug-16 02:10 198 1 gusting 3 19.4
2017-Aug-16 02:05 199 1 gusting 4 19.4
2017-Aug-16 02:00 202 1 gusting 4 19.4
2017-Aug-16 01:55 205 1 gusting 3 19.4
2017-Aug-16 01:50 205 0 gusting 2 19.4
2017-Aug-16 01:45 205 0 gusting 2 19.4
2017-Aug-16 01:40 206 1 gusting 3 19.4
2017-Aug-16 01:35 209 1 gusting 4 19.4
2017-Aug-16 01:30 211 1 gusting 4 19.4
2017-Aug-16 01:25 212 0 gusting 2 20.0
2017-Aug-16 01:20 212 0 gusting 2 20.0
2017-Aug-16 01:15 212 0 gusting 2 20.0
2017-Aug-16 01:10 213 0 gusting 4 20.0
2017-Aug-16 01:05 225 1 gusting 4 20.0
2017-Aug-16 01:00 236 1 gusting 2 20.6
2017-Aug-16 00:55 236 0 gusting 4 20.6
2017-Aug-16 00:50 231 1 gusting 4 20.6
2017-Aug-16 00:45 223 1 gusting 5 20.6
2017-Aug-16 00:40 209 1 gusting 5 20.6
2017-Aug-16 00:35 202 1 gusting 4 20.6
2017-Aug-16 00:30 199 1 gusting 3 20.6
2017-Aug-16 00:25 202 1 gusting 3 20.6
2017-Aug-16 00:20 204 1 gusting 3 20.6
2017-Aug-16 00:15 204 1 gusting 3 20.6
2017-Aug-16 00:10 203 1 gusting 4 20.6
2017-Aug-16 00:05 201 1 gusting 4 20.6
2017-Aug-16 00:00 200 1 gusting 3 20.6
2017-Aug-15 23:55 200 0 gusting 2 20.6
2017-Aug-15 23:50 203 1 gusting 5 20.6
2017-Aug-15 23:45 210 2 gusting 6 20.6
2017-Aug-15 23:40 217 2 gusting 6 20.6
2017-Aug-15 23:35 222 1 gusting 4 20.6
2017-Aug-15 23:30 247 2 gusting 6 20.6
2017-Aug-15 23:25 290 2 gusting 6 20.6
2017-Aug-15 23:20 318 1 gusting 4 20.6
2017-Aug-15 23:15 337 0 gusting 3 20.6
2017-Aug-15 23:10 336 0 gusting 2 20.6
2017-Aug-15 23:05 337 0 gusting 2 20.6
2017-Aug-15 22:55 336 0 gusting 1 20.6
2017-Aug-15 22:50 337 0 gusting 2 20.6
2017-Aug-15 22:45 336 1 gusting 2 20.6
2017-Aug-15 22:40 336 1 gusting 3 20.6
2017-Aug-15 22:35 336 1 gusting 3 20.6
2017-Aug-15 22:30 336 1 gusting 3 20.6
2017-Aug-15 22:25 336 1 gusting 3 20.6
2017-Aug-15 22:20 336 1 gusting 4 20.6
2017-Aug-15 22:15 337 1 gusting 4 20.6
2017-Aug-15 22:10 336 1 gusting 3 20.6
2017-Aug-15 22:05 336 2 gusting 4 20.6
2017-Aug-15 22:00 339 2 gusting 4 20.6
2017-Aug-15 21:55 341 2 gusting 4 20.6
2017-Aug-15 21:50 339 2 gusting 4 20.6
2017-Aug-15 21:45 338 2 gusting 5 20.6
2017-Aug-15 21:40 339 3 gusting 6 20.6
2017-Aug-15 21:35 343 2 gusting 6 20.6
2017-Aug-15 21:30 346 2 gusting 5 20.6
2017-Aug-15 21:25 345 2 gusting 5 20.6
2017-Aug-15 21:20 345 2 gusting 5 20.6
2017-Aug-15 21:15 350 2 gusting 5 20.6
2017-Aug-15 21:10 354 2 gusting 4 20.6
2017-Aug-15 21:05 354 2 gusting 4 20.6
2017-Aug-15 21:00 347 2 gusting 4 20.6
2017-Aug-15 20:55 342 2 gusting 5 20.6
2017-Aug-15 20:50 338 2 gusting 5 20.6
2017-Aug-15 20:45 339 3 gusting 5 20.6
2017-Aug-15 20:40 339 3 gusting 5 20.6
2017-Aug-15 20:35 337 2 gusting 5 20.6
2017-Aug-15 20:30 336 2 gusting 4 20.6
2017-Aug-15 20:25 333 2 gusting 4 20.6
2017-Aug-15 20:20 329 2 gusting 5 20.6
2017-Aug-15 20:15 328 3 gusting 5 20.6
2017-Aug-15 20:10 329 3 gusting 5 20.6
2017-Aug-15 20:05 341 3 gusting 6 20.6
2017-Aug-15 20:00 358 3 gusting 6 20.6
2017-Aug-15 19:55 011 3 gusting 6 20.6
2017-Aug-15 19:50 014 3 gusting 6 20.6
2017-Aug-15 19:45 012 3 gusting 6 20.6
2017-Aug-15 19:40 008 4 gusting 6 20.6
2017-Aug-15 19:35 007 3 gusting 6 20.6
2017-Aug-15 19:30 006 3 gusting 6 20.6
2017-Aug-15 19:25 342 3 gusting 6 20.6
2017-Aug-15 19:20 315 3 gusting 6 21.1
2017-Aug-15 19:15 322 2 gusting 6 20.6
2017-Aug-15 19:10 337 3 gusting 6 20.6
2017-Aug-15 19:05 336 3 gusting 7 20.6
2017-Aug-15 19:00 336 3 gusting 7 21.1
2017-Aug-15 18:55 347 4 gusting 7 21.1
2017-Aug-15 18:50 357 4 gusting 7 21.1
2017-Aug-15 18:45 006 4 gusting 7 21.1
2017-Aug-15 18:40 005 4 gusting 7 21.1
2017-Aug-15 18:35 352 3 gusting 6 21.1
2017-Aug-15 18:30 345 3 gusting 6 21.1
2017-Aug-15 18:25 341 3 gusting 6 21.1
2017-Aug-15 18:20 339 3 gusting 6 21.1
2017-Aug-15 18:15 335 3 gusting 6 21.1
2017-Aug-15 18:10 338 3 gusting 6 21.1
2017-Aug-15 18:05 340 3 gusting 6 21.1
2017-Aug-15 18:00 351 4 gusting 10 21.1
2017-Aug-15 17:55 356 4 gusting 10 21.1
2017-Aug-15 17:50 354 4 gusting 8 21.1
2017-Aug-15 17:45 004 4 gusting 8 21.1
2017-Aug-15 17:40 007 4 gusting 8 21.1
2017-Aug-15 17:35 013 4 gusting 7 21.1
2017-Aug-15 17:30 018 4 gusting 7 21.7
2017-Aug-15 17:25 009 4 gusting 7 21.7
2017-Aug-15 17:20 358 4 gusting 7 21.7
2017-Aug-15 17:15 002 3 gusting 7 21.7
2017-Aug-15 17:10 021 3 gusting 7 21.7
2017-Aug-15 17:05 009 4 gusting 8 21.7
2017-Aug-15 17:00 358 5 gusting 8 21.7
2017-Aug-15 16:55 357 4 gusting 8 21.7
2017-Aug-15 16:50 354 4 gusting 8 22.2
2017-Aug-15 16:45 345 4 gusting 8 22.2
2017-Aug-15 16:40 341 4 gusting 8 22.2
2017-Aug-15 16:35 347 3 gusting 8 22.2
2017-Aug-15 16:30 357 3 gusting 8 22.2
2017-Aug-15 16:25 358 2 gusting 6 22.2
2017-Aug-15 16:20 352 3 gusting 7 22.2
2017-Aug-15 16:15 004 3 gusting 7 22.2
2017-Aug-15 16:10 018 3 gusting 8 22.8
2017-Aug-15 16:05 014 4 gusting 9 22.8
2017-Aug-15 16:00 002 4 gusting 9 22.8
2017-Aug-15 15:55 015 3 gusting 7 22.8
2017-Aug-15 15:50 009 4 gusting 7 22.8
2017-Aug-15 15:45 345 4 gusting 8 22.8
2017-Aug-15 15:40 334 4 gusting 9 22.8
2017-Aug-15 15:35 348 4 gusting 9 22.8
2017-Aug-15 15:30 002 4 gusting 7 22.8
2017-Aug-15 15:25 355 3 gusting 7 22.8
2017-Aug-15 15:20 341 4 gusting 8 23.3
2017-Aug-15 15:15 341 3 gusting 8 22.8
2017-Aug-15 15:10 003 3 gusting 7 22.8
2017-Aug-15 15:05 008 2 gusting 6 22.8
2017-Aug-15 15:00 014 3 gusting 8 22.8
2017-Aug-15 14:55 011 3 gusting 8 22.8
2017-Aug-15 14:50 002 2 gusting 6 22.8
2017-Aug-15 14:45 359 3 gusting 8 22.8
2017-Aug-15 14:40 353 4 gusting 9 22.8
2017-Aug-15 14:35 357 4 gusting 9 22.8
2017-Aug-15 14:30 006 4 gusting 8 22.8
2017-Aug-15 14:25 004 3 gusting 8 22.8
2017-Aug-15 14:20 016 2 gusting 7 22.8
2017-Aug-15 14:15 002 2 gusting 9 22.8
2017-Aug-15 14:10 345 4 gusting 9 22.8
2017-Aug-15 14:05 349 4 gusting 9 22.8
2017-Aug-15 14:00 358 3 gusting 9 23.3
2017-Aug-15 13:55 020 3 gusting 8 23.3
2017-Aug-15 13:50 018 3 gusting 8 22.8
2017-Aug-15 13:45 353 4 gusting 10 22.8
2017-Aug-15 13:40 357 5 gusting 10 22.2
2017-Aug-15 13:35 007 3 gusting 7 22.2
2017-Aug-15 13:30 352 4 gusting 8 22.2
2017-Aug-15 13:25 351 4 gusting 8 22.2
2017-Aug-15 13:20 004 3 gusting 7 22.2
2017-Aug-15 13:15 352 4 gusting 8 22.2
2017-Aug-15 13:10 349 3 gusting 8 22.2
2017-Aug-15 13:05 353 3 gusting 7 22.8
2017-Aug-15 13:00 002 3 gusting 7 22.2
2017-Aug-15 12:55 008 3 gusting 6 22.2
2017-Aug-15 12:50 007 3 gusting 6 22.2
2017-Aug-15 12:45 359 4 gusting 9 22.2
2017-Aug-15 12:40 342 5 gusting 9 22.2
2017-Aug-15 12:35 335 6 gusting 9 22.2
2017-Aug-15 12:30 338 6 gusting 9 22.2
2017-Aug-15 12:25 337 6 gusting 9 22.2
2017-Aug-15 12:20 342 5 gusting 8 22.2
2017-Aug-15 12:15 356 4 gusting 8 22.2
2017-Aug-15 12:10 356 4 gusting 9 22.2
2017-Aug-15 12:05 006 4 gusting 9 22.2
2017-Aug-15 12:00 008 4 gusting 10 22.2
2017-Aug-15 11:55 347 4 gusting 10 22.2
2017-Aug-15 11:50 347 4 gusting 9 22.2
2017-Aug-15 11:45 011 3 gusting 8 22.2
2017-Aug-15 11:40 020 3 gusting 7 22.2
2017-Aug-15 11:35 015 3 gusting 6 21.7
2017-Aug-15 11:30 014 3 gusting 6 21.7
2017-Aug-15 11:25 019 2 gusting 6 21.7
2017-Aug-15 11:20 014 3 gusting 6 21.7
2017-Aug-15 11:15 359 4 gusting 7 21.7
2017-Aug-15 11:10 003 4 gusting 8 21.7
2017-Aug-15 11:05 011 4 gusting 8 21.7
2017-Aug-15 11:00 012 3 gusting 8 21.7
2017-Aug-15 10:55 007 3 gusting 7 21.7
2017-Aug-15 10:50 354 3 gusting 7 22.2
2017-Aug-15 10:45 343 3 gusting 7 21.7
2017-Aug-15 10:40 336 3 gusting 7 22.2
2017-Aug-15 10:35 338 3 gusting 7 22.2
2017-Aug-15 10:30 355 2 gusting 6 21.7
2017-Aug-15 10:25 351 2 gusting 6 21.7
2017-Aug-15 10:20 354 2 gusting 7 21.7
2017-Aug-15 10:15 012 2 gusting 7 21.7
2017-Aug-15 10:10 014 3 gusting 6 21.7
2017-Aug-15 10:05 010 3 gusting 6 21.1
2017-Aug-15 10:00 002 2 gusting 6 21.1
2017-Aug-15 09:55 357 2 gusting 6 21.1
2017-Aug-15 09:50 349 3 gusting 6 21.1
2017-Aug-15 09:45 338 3 gusting 7 21.7
2017-Aug-15 09:40 333 3 gusting 7 21.7
2017-Aug-15 09:35 338 2 gusting 6 21.1
2017-Aug-15 09:30 355 2 gusting 4 21.1
2017-Aug-15 09:25 006 2 gusting 4 21.1
2017-Aug-15 09:20 012 2 gusting 6 20.6
2017-Aug-15 09:15 012 2 gusting 6 20.6
2017-Aug-15 09:10 012 2 gusting 6 20.6
2017-Aug-15 09:05 001 3 gusting 6 20.6
2017-Aug-15 09:00 356 3 gusting 6 20.6
2017-Aug-15 08:55 004 2 gusting 5 20.6
2017-Aug-15 08:50 008 2 gusting 5 20.6
2017-Aug-15 08:45 007 2 gusting 4 20.6
2017-Aug-15 08:40 345 2 gusting 5 20.6
2017-Aug-15 08:35 336 2 gusting 5 20.6
2017-Aug-15 08:30 334 2 gusting 5 20.6
2017-Aug-15 08:25 301 2 gusting 5 20.6
2017-Aug-15 08:20 264 1 gusting 3 20.6
2017-Aug-15 08:15 250 0 gusting 3 20.0
2017-Aug-15 08:10 244 0 gusting 1 20.0
2017-Aug-15 08:05 244 0 gusting 2 20.0
2017-Aug-15 08:00 242 0 gusting 2 20.0
2017-Aug-15 07:55 240 0 gusting 2 20.0
2017-Aug-15 07:50 238 1 gusting 2 20.0
2017-Aug-15 07:45 238 1 gusting 3 20.0
2017-Aug-15 07:40 238 0 gusting 3 20.0
2017-Aug-15 07:35 238 0 gusting 2 20.0
2017-Aug-15 07:30 238 0 gusting 2 20.0
2017-Aug-15 07:25 237 1 gusting 3 20.0
2017-Aug-15 07:20 235 1 gusting 3 20.0
2017-Aug-15 07:15 233 0 gusting 2 20.0
2017-Aug-15 07:10 233 0 gusting 2 20.0
2017-Aug-15 07:05 233 0 gusting 1 20.0
2017-Aug-15 07:00 233 0 gusting 3 20.0
2017-Aug-15 06:55 233 1 gusting 3 20.0
2017-Aug-15 06:50 233 1 gusting 3 20.0
2017-Aug-15 06:45 228 1 gusting 3 20.0
2017-Aug-15 06:40 214 0 gusting 3 20.0
2017-Aug-15 06:35 193 0 gusting 2 19.4
2017-Aug-15 06:30 193 0 gusting 2 19.4
2017-Aug-15 06:25 192 0 gusting 2 19.4
2017-Aug-15 06:20 186 1 gusting 3 19.4
2017-Aug-15 06:15 179 1 gusting 3 19.4
2017-Aug-15 06:10 177 0 gusting 3 19.4
2017-Aug-15 06:05 178 1 gusting 4 19.4
2017-Aug-15 06:00 179 1 gusting 4 19.4
2017-Aug-15 05:55 181 0 gusting 3 19.4
2017-Aug-15 05:50 181 19.4
2017-Aug-15 05:45 179 0 gusting 3 19.4
2017-Aug-15 05:40 179 0 gusting 3 19.4
2017-Aug-15 05:35 177 0 gusting 2 19.4
2017-Aug-15 05:30 177 1 gusting 3 19.4
2017-Aug-15 05:25 177 1 gusting 3 19.4
2017-Aug-15 05:20 177 0 gusting 3 19.4
2017-Aug-15 05:15 177 0 gusting 3 19.4
2017-Aug-15 05:10 177 1 gusting 3 19.4
2017-Aug-15 05:05 191 1 gusting 4 19.4
2017-Aug-15 05:00 218 1 gusting 4 19.4